Total_Precipitation_Accumulation
2.12 2.20 2.22 2.26 2.12 1.96 1.92 2.02 2.16 1.96 1.80 1.60 1.38 1.20 1.30 1.32 1.38 1.21 1.14 1.08 0.98 0.91 0.88 0.81 0.74 0.78 0.97 1.29 1.40 1.32 1.37 1.54 1.89 2.21 2.03 1.84 1.70 1.67
1.90 1.97 2.02 2.07 2.08 2.04 2.01 2.00 2.00 1.95 1.85 1.66 1.37 1.10 1.19 1.26 1.39 1.21 1.24 1.31 1.11 0.96 0.86 0.85 0.82 0.77 0.81 0.93 1.02 0.91 0.83 0.87 1.13 1.72 1.93 1.81 1.76 1.81
1.66 1.70 1.81 1.87 2.04 2.07 2.03 1.99 1.99 1.91 1.78 1.69 1.43 1.21 1.21 1.29 1.36 1.27 1.30 1.31 1.14 1.07 0.98 0.93 0.84 0.87 0.90 0.92 0.99 0.91 0.76 0.67 0.68 0.87 1.14 1.28 1.45 1.69
1.45 1.48 1.58 1.65 1.78 1.91 2.01 1.92 1.93 1.89 1.88 1.82 1.60 1.37 1.29 1.31 1.38 1.34 1.25 1.24 1.22 1.19 1.09 1.01 0.94 0.88 0.93 0.92 1.02 1.06 0.98 0.81 0.71 0.69 0.78 0.90 1.05 1.22
1.23 1.27 1.33 1.39 1.52 1.64 1.75 1.84 1.85 1.78 1.88 1.87 1.66 1.43 1.31 1.29 1.33 1.31 1.28 1.34 1.24 1.24 1.20 1.08 1.05 0.99 0.99 0.99 0.98 1.06 1.05 0.96 0.81 0.77 0.79 0.83 0.90 0.99
0.98 0.98 1.01 1.04 1.17 1.30 1.40 1.56 1.72 1.85 1.93 1.95 1.79 1.52 1.34 1.32 1.36 1.42 1.43 1.37 1.37 1.25 1.25 1.22 1.22 1.17 1.11 1.11 1.01 0.99 1.03 1.04 0.91 0.82 0.79 0.80 0.81 0.80
0.97 0.88 0.81 0.81 0.91 1.01 1.10 1.36 1.56 1.72 1.87 1.92 1.84 1.67 1.50 1.41 1.36 1.36 1.46 1.57 1.57 1.41 1.35 1.26 1.23 1.10 1.00 1.04 1.03 0.96 0.93 0.93 0.87 0.79 0.72 0.66 0.66 0.70
0.92 0.91 0.90 0.86 0.75 0.71 0.79 0.95 1.19 1.40 1.58 1.70 1.73 1.60 1.45 1.41 1.46 1.46 1.45 1.52 1.59 1.45 1.41 1.48 1.41 1.27 1.13 1.02 1.08 1.01 0.94 0.92 0.93 0.90 0.82 0.75 0.72 0.71
0.89 0.88 0.91 0.91 0.95 0.84 0.78 0.77 0.81 0.98 1.23 1.45 1.47 1.43 1.50 1.43 1.40 1.36 1.33 1.34 1.36 1.37 1.39 1.44 1.44 1.32 1.15 1.09 1.18 1.12 1.05 0.98 0.96 0.98 0.98 0.90 0.82 0.76
0.94 0.96 0.99 1.03 0.99 1.09 1.06 0.97 0.90 0.90 0.99 0.95 1.05 1.32 1.43 1.45 1.46 1.47 1.50 1.42 1.36 1.34 1.30 1.34 1.29 1.24 1.13 1.06 1.12 1.06 0.99 0.94 0.93 0.94 0.99 1.02 1.01 0.96
0.89 0.90 0.96 1.00 1.18 1.22 1.13 1.11 1.04 0.99 1.12 1.13 1.14 1.20 1.27 1.29 1.31 1.40 1.47 1.42 1.36 1.30 1.23 1.15 1.11 1.20 1.25 1.15 1.11 1.16 1.10 1.01 0.97 1.00 1.01 1.03 1.09 1.10
0.96 0.91 1.06 1.04 1.05 1.00 0.97 1.16 1.14 1.04 0.95 0.91 0.92 0.97 0.99 1.05 1.14 1.17 1.32 1.34 1.28 1.29 1.18 1.14 1.10 1.17 1.24 1.17 1.04 1.02 1.06 1.10 1.06 1.03 1.07 1.09 1.11 1.06
0.96 0.97 0.95 1.03 0.86 0.82 0.87 1.02 1.17 1.11 1.06 1.08 1.02 0.96 0.93 0.94 0.90 0.97 1.12 1.21 1.24 1.23 1.11 1.08 1.12 1.15 1.09 1.01 1.01 0.92 0.84 0.87 0.88 0.87 0.89 0.97 1.04 0.99
0.84 0.76 0.75 0.83 0.69 0.64 0.63 0.76 0.95 0.97 0.98 1.06 1.03 0.96 0.91 0.88 0.85 0.85 0.94 1.02 1.06 1.08 1.10 1.08 1.08 1.10 1.08 0.93 0.88 0.88 0.84 0.81 0.80 0.78 0.74 0.88 0.92 0.97
0.64 0.64 0.57 0.54 0.53 0.50 0.53 0.63 0.70 0.84 0.98 1.02 0.92 0.85 0.85 0.88 0.89 0.87 0.83 0.86 0.89 0.90 0.91 0.90 0.96 1.05 1.10 0.99 0.88 0.84 0.86 0.88 0.83 0.82 0.81 0.78 0.76 0.81
0.43 0.37 0.36 0.39 0.45 0.47 0.48 0.50 0.57 0.78 0.96 0.95 0.87 0.82 0.83 0.87 0.94 0.97 0.94 0.88 0.88 0.89 0.87 0.87 0.89 0.96 0.96 0.90 0.89 0.87 0.86 0.86 0.85 0.89 0.92 0.89 0.80 0.74
0.56 0.47 0.41 0.39 0.41 0.45 0.48 0.53 0.66 0.76 0.87 0.82 0.82 0.80 0.80 0.87 0.92 0.97 1.03 1.00 0.93 0.89 0.94 1.00 1.03 1.04 1.00 0.98 0.95 0.91 0.93 0.91 0.90 0.94 0.97 0.95 0.88 0.80
0.54 0.55 0.55 0.56 0.57 0.56 0.55 0.52 0.53 0.61 0.69 0.76 0.77 0.78 0.78 0.78 0.79 0.83 0.91 0.97 0.95 0.91 0.87 0.91 1.02 1.13 1.13 1.06 0.95 0.90 0.96 0.98 0.98 0.99 0.96 0.92 0.85 0.84
0.46 0.48 0.50 0.51 0.52 0.51 0.49 0.47 0.45 0.45 0.52 0.63 0.74 0.80 0.83 0.82 0.82 0.78 0.76 0.79 0.79 0.79 0.79 0.78 0.86 0.96 1.05 1.01 0.90 0.79 0.83 0.91 0.95 0.92 0.90 0.85 0.78 0.78
0.30 0.35 0.36 0.37 0.38 0.40 0.38 0.36 0.36 0.38 0.41 0.45 0.55 0.69 0.84 0.94 0.95 0.93 0.87 0.84 0.84 0.79 0.78 0.76 0.74 0.78 0.86 0.87 0.80 0.72 0.71 0.79 0.83 0.81 0.77 0.78 0.78 0.84
0.16 0.19 0.20 0.21 0.25 0.27 0.28 0.29 0.30 0.33 0.37 0.40 0.44 0.49 0.61 0.77 0.88 0.93 0.99 1.06 1.03 0.96 0.92 0.89 0.86 0.89 0.86 0.89 0.82 0.65 0.61 0.65 0.70 0.69 0.69 0.73 0.73 0.72
0.13 0.14 0.15 0.16 0.19 0.22 0.23 0.25 0.27 0.29 0.33 0.37 0.40 0.44 0.51 0.60 0.70 0.79 0.85 0.91 0.97 1.01 0.99 0.97 0.97 0.98 0.95 0.97 0.88 0.72 0.66 0.65 0.68 0.74 0.75 0.79 0.75 0.69
0.12 0.14 0.15 0.17 0.19 0.23 0.31 0.36 0.34 0.33 0.36 0.40 0.45 0.48 0.52 0.56 0.60 0.70 0.76 0.81 0.87 0.89 0.91 0.93 0.93 0.91 0.90 0.88 0.87 0.84 0.77 0.72 0.71 0.69 0.65 0.75 0.77 0.69